User: anonymous   Login
Location: Astronight Observatory
(42.6003°N, 71.2981°W)
Time: 02:41:44
(UTC-04:00)
Language:

DELTA 2 R/B (1) - Orbit

View from above orbital plane
View from above orbital plane
View from above satellite
View from above satellite

Ground track
Ground track

The orbit data is extracted from the following two-line orbital elements,

1 27665U 03005C   15089.51819789  .00000124  00000-0  83073-4 0  9997
2 27665 039.5752 272.6192 0007663 037.9264 352.6541 14.28315666635137
Epoch (UTC): 30 March 2015 12:26:12
Eccentricity: 0.0007663
inclination: 39.5752°
perigee height: 792 km
apogee height: 803 km
right ascension of ascending node: 272.6192°
argument of perigee: 37.9264°
revolutions per day: 14.28315666
mean anomaly at epoch: 352.6541°
orbit number at epoch: 63513

The dashed part of the orbit path shows where the satellite is in the earth's shadow,  

DLR